Wind_Speed
17 16 16 15 15 15 14 14 14 13 13 13 13 14 14 13 13 13 14 13 16 14 15 15 15 15 14 14 16 17 17 15 16
18 17 17 16 15 15 14 14 14 13 13 14 14 14 14 14 14 14 14 15 16 17 16 16 16 16 16 18 18 17 16 18 18
19 18 17 16 15 14 14 13 14 14 14 15 15 15 16 16 16 16 16 16 17 17 18 17 17 17 17 18 19 20 20 18 20
18 17 16 16 15 15 14 14 14 15 15 16 16 16 16 17 17 17 17 17 18 18 18 17 18 18 17 18 18 20 21 22 22
18 17 15 15 15 14 14 14 15 15 15 16 16 16 16 16 17 16 16 17 18 18 17 17 17 17 18 17 17 18 18 18 21
15 15 15 15 15 15 15 15 14 15 14 14 15 16 16 16 17 18 17 18 17 17 16 16 16 17 17 18 19 19 19 19 21
15 16 16 15 15 16 16 16 16 16 15 14 14 15 17 17 17 17 17 17 16 16 16 16 16 18 18 19 20 20 20 20 22
15 14 14 15 16 17 18 18 18 18 17 17 16 16 17 17 17 16 15 15 15 15 15 16 17 18 19 20 21 22 21 23 25
15 15 15 16 17 18 18 18 18 19 19 18 17 17 17 16 15 15 14 14 14 15 15 16 16 17 18 19 20 20 22 23 23
16 16 16 17 18 18 18 18 18 18 18 18 17 15 15 15 14 13 13 13 13 14 14 15 16 16 17 18 19 21 21 22 23
16 16 16 17 17 16 17 17 17 17 16 16 16 14 12 11 12 12 12 11 12 13 14 14 15 16 16 18 20 20 20 20 21
15 15 16 17 16 17 18 18 17 17 16 15 14 12 12 11 10 10 11 10 11 12 14 15 15 16 16 18 19 19 19 19 19
15 15 16 16 16 17 17 17 17 16 15 14 14 12 11 11 10 9 10 10 10 12 13 14 14 15 16 18 18 18 19 18 16
15 15 15 15 15 16 16 17 15 15 15 14 13 12 11 11 10 10 11 11 12 13 13 14 13 14 15 17 17 17 19 17 15
15 16 16 15 15 16 16 16 16 15 14 14 13 13 12 11 11 10 11 12 12 13 14 15 14 13 14 15 16 17 18 17 16
16 16 16 15 15 15 15 15 15 15 13 14 13 12 12 12 13 12 12 12 13 14 15 15 16 13 13 16 15 14 16 16 18
15 16 16 16 16 16 15 14 16 15 14 13 13 12 10 10 11 12 12 12 13 14 14 15 17 15 14 15 15 14 15 14 18
16 17 17 17 17 17 17 15 15 16 16 15 14 13 13 12 11 11 12 13 14 14 14 15 15 15 15 15 16 15 16 14 18
17 17 18 17 18 18 17 17 16 16 17 16 15 14 13 13 13 12 11 12 13 15 15 15 16 16 16 17 16 15 15 16 18
18 19 20 19 19 18 19 18 17 17 17 17 17 16 14 14 13 12 14 16 13 14 15 16 16 16 17 17 16 15 15 16 16
Wind_Direction
342 341 339 339 337 334 330 326 322 318 314 311 307 303 297 292 289 287 287 284 284 280 276 274 271 267 255 265 270 263 264 265 265
337 336 336 336 336 333 328 325 321 318 315 311 308 303 299 294 289 282 280 282 280 281 277 274 272 268 263 255 254 262 265 264 265
335 337 336 335 332 329 325 324 322 319 317 314 311 307 301 295 291 288 284 280 275 274 276 274 270 267 265 262 259 256 256 263 264
337 337 336 335 334 333 331 329 325 321 321 318 314 309 305 301 297 293 291 286 282 280 276 274 271 269 265 263 264 265 262 259 258
341 337 338 338 337 335 332 329 325 322 320 316 313 310 307 303 297 294 291 286 282 278 273 272 269 264 264 265 266 267 269 267 263
336 336 341 343 339 336 335 331 327 325 322 320 317 313 308 305 301 297 290 282 279 276 271 268 264 258 256 261 269 271 269 267 265
344 344 347 347 343 340 336 333 329 324 319 315 312 308 305 301 299 296 291 285 280 276 273 271 265 258 257 262 269 273 273 272 269
346 343 342 343 343 338 335 332 331 325 322 316 314 311 310 308 309 304 295 286 279 274 272 272 268 265 264 267 272 275 278 275 272
340 340 341 341 341 339 336 335 334 331 325 322 319 318 314 313 315 309 300 290 279 273 274 275 275 273 271 274 277 281 279 276 277
336 338 339 340 341 341 339 338 337 333 329 327 324 321 320 321 318 312 305 294 286 283 283 282 280 279 278 278 278 276 281 285 287
332 334 337 339 342 344 342 342 341 338 336 336 329 326 324 323 319 318 306 296 289 289 290 288 286 283 282 280 280 286 288 286 284
326 329 334 337 339 339 340 339 339 338 338 339 334 334 336 335 332 318 309 299 293 294 293 294 294 292 290 291 292 291 289 292 295
321 326 331 334 338 338 339 343 342 339 339 339 336 339 339 338 336 325 316 309 295 289 293 296 298 299 298 294 296 298 293 290 295
315 321 327 331 335 337 339 340 343 342 341 339 336 339 339 335 333 334 328 324 313 300 292 294 298 301 300 300 303 299 296 301 304
313 318 324 329 331 335 337 341 342 345 344 339 335 334 331 326 325 326 327 326 319 311 304 299 296 300 302 302 303 304 306 310 310
313 314 319 323 326 327 332 336 337 339 344 342 339 331 323 319 318 323 322 323 322 318 314 309 302 305 301 301 307 310 307 313 306
307 309 316 319 321 320 325 331 330 330 333 334 329 330 326 321 317 319 322 319 316 315 317 317 312 313 311 303 302 306 304 310 297
305 307 313 315 315 314 317 323 323 323 323 322 324 326 329 332 331 326 321 315 312 309 310 312 313 317 314 305 304 305 299 301 296
299 303 306 309 311 310 312 315 317 315 315 316 318 320 322 325 326 323 320 315 311 310 310 309 308 310 314 315 314 308 303 301 297
298 302 305 307 307 307 307 309 310 311 311 313 313 313 314 316 319 317 319 318 317 312 312 313 312 310 309 306 308 309 305 302 299
Height
3166 3163 3161 3159 3158 3156 3154 3153 3151 3150 3149 3149 3148 3147 3146 3144 3144 3143 3142 3142 3142 3142 3141 3141 3141 3142 3143 3144 3144 3144 3145 3145 3145
3164 3162 3160 3158 3155 3154 3152 3150 3149 3148 3147 3146 3145 3144 3143 3142 3141 3140 3139 3139 3138 3137 3138 3138 3138 3138 3138 3139 3140 3141 3141 3141 3142
3162 3159 3158 3156 3154 3151 3150 3148 3146 3145 3144 3142 3141 3140 3140 3139 3138 3137 3136 3136 3135 3134 3134 3134 3134 3134 3134 3134 3135 3136 3137 3138 3138
3160 3157 3155 3153 3151 3149 3148 3146 3144 3143 3141 3140 3138 3137 3136 3135 3134 3133 3133 3132 3131 3131 3131 3130 3130 3130 3130 3130 3131 3131 3132 3133 3134
3157 3155 3152 3151 3149 3147 3145 3143 3142 3140 3138 3137 3135 3134 3132 3131 3130 3129 3128 3127 3127 3127 3127 3127 3126 3126 3126 3126 3126 3127 3128 3129 3129
3156 3153 3151 3149 3147 3145 3143 3141 3139 3138 3136 3134 3132 3130 3129 3127 3126 3125 3124 3122 3122 3121 3122 3122 3122 3122 3122 3122 3122 3123 3124 3125 3125
3153 3151 3148 3146 3145 3143 3141 3138 3136 3135 3133 3131 3128 3127 3126 3124 3123 3122 3120 3119 3118 3117 3118 3118 3118 3118 3118 3119 3119 3119 3120 3120 3120
3151 3149 3148 3145 3143 3142 3139 3137 3135 3133 3130 3128 3126 3124 3122 3120 3119 3118 3117 3116 3115 3114 3113 3113 3113 3114 3114 3115 3115 3115 3115 3115 3114
3149 3148 3146 3144 3141 3139 3137 3134 3132 3130 3128 3126 3123 3121 3119 3117 3115 3115 3114 3113 3112 3111 3110 3110 3110 3110 3110 3111 3111 3110 3110 3109 3109
3147 3146 3144 3142 3139 3137 3135 3133 3130 3128 3126 3123 3121 3118 3116 3114 3112 3112 3111 3110 3110 3109 3108 3107 3107 3107 3107 3107 3106 3105 3105 3104 3103
3146 3144 3142 3140 3137 3135 3133 3130 3128 3125 3123 3121 3119 3116 3114 3112 3110 3109 3108 3107 3106 3106 3105 3104 3104 3103 3103 3102 3101 3100 3100 3100 3099
3144 3142 3140 3138 3135 3133 3130 3128 3125 3123 3121 3119 3116 3114 3112 3110 3109 3108 3106 3105 3103 3103 3102 3102 3101 3101 3100 3098 3097 3097 3095 3095 3094
3141 3140 3138 3136 3133 3131 3129 3126 3123 3121 3119 3117 3115 3112 3110 3109 3107 3106 3104 3102 3101 3100 3099 3099 3099 3098 3096 3094 3093 3092 3091 3090 3089
3139 3137 3135 3133 3131 3128 3126 3124 3121 3119 3117 3115 3113 3110 3109 3107 3106 3104 3102 3100 3099 3098 3097 3097 3095 3094 3093 3091 3089 3089 3088 3087 3086
3136 3135 3133 3130 3129 3126 3124 3122 3120 3117 3115 3114 3111 3109 3107 3105 3104 3102 3100 3098 3097 3095 3094 3094 3093 3092 3090 3088 3086 3085 3084 3082 3080
3134 3132 3130 3127 3126 3124 3122 3119 3118 3115 3113 3111 3110 3108 3106 3104 3102 3100 3099 3098 3096 3094 3092 3091 3089 3089 3088 3085 3084 3082 3080 3079 3075
3130 3129 3127 3125 3123 3121 3119 3116 3115 3114 3111 3110 3108 3107 3106 3103 3100 3098 3097 3096 3094 3092 3090 3089 3087 3086 3085 3082 3080 3079 3077 3076 3072
3126 3125 3124 3122 3120 3119 3117 3114 3112 3111 3110 3108 3106 3104 3102 3100 3099 3097 3095 3093 3091 3090 3088 3086 3084 3083 3081 3079 3078 3076 3074 3073 3070
3123 3121 3120 3118 3117 3116 3114 3112 3110 3108 3107 3105 3103 3101 3099 3097 3096 3094 3092 3091 3089 3087 3085 3084 3082 3080 3078 3076 3075 3073 3071 3070 3067
3119 3118 3116 3115 3113 3111 3110 3108 3106 3105 3103 3102 3100 3098 3096 3094 3093 3091 3090 3088 3087 3085 3083 3081 3079 3077 3075 3073 3071 3069 3068 3066 3064